Merida - Lic Manuel Crece, Mexico

7:05 PM EST on August 29, 2016 (GMT -0500)
Lic Manuel Crecencio Rejon

Weather History for MMMD - November, 2012

Change the Weather History Date:

Sunday, November 4, 2012

  Actual Average Record
Temperature  
Mean Temperature 79 °F -  
Max Temperature 91 °F 86 °F 93 °F (2004)
Min Temperature 67 °F 68 °F 59 °F (2008)
Cooling Degree Days 14    
Growing Degree Days 29 (Base 50)    
Moisture  
Dew Point 65 °F    
Average Humidity 65    
Maximum Humidity 87    
Minimum Humidity 33    
Precipitation  
Precipitation 0.00 in - - ()
Sea Level Pressure  
Sea Level Pressure 30.00 in    
Wind  
Wind Speed 6 mph ()    
Max Wind Speed 12 mph    
Max Gust Speed -    
Visibility 6.4 miles    
Events      
Averages and records for this station are not official NWS values.
T = Trace of Precipitation, MM = Missing Value Source: Averaged Metar Reports

Daily Weather History Graph

Daily Weather History Graph

Search for Another Location

Airport or City:

Trip Planner

Search our weather history database for the weather conditions in past years. The results will help you decide how hot, cold, wet, or windy it might be!

Date:

Astronomy

Nov. 04, 2012 Rise Set
Actual Time 6:02 AM CST 5:21 PM CST
Civil Twilight 5:39 AM CST 5:44 PM CST
Nautical Twilight 5:13 AM CST 6:10 PM CST
Astronomical Twilight 4:47 AM CST 6:36 PM CST
Moon 10:04 PM CST (11/4) 10:38 AM CST (11/4)
Length of Visible Light 12h 04m
Length of Day
11h 18m
Waning Gibbous, 72% of the Moon is Illuminated
Nov 4
Waning Gibbous
Nov 6
Last Quarter
Nov 13
New
Nov 20
First Quarter
Nov 28
Full

Hourly Weather History & Observations

Time (CST) Temp. Heat Index Dew Point Humidity Pressure Visibility Wind Dir Wind Speed Gust Speed Precip Events Conditions
12:47 AM 71.6 °F - 64.4 °F 78% 30.03 in 7.0 mi East 8.1 mph - N/A   Scattered Clouds
1:50 AM 69.8 °F - 64.4 °F 83% 30.01 in 7.0 mi East 6.9 mph - N/A   Scattered Clouds
2:41 AM 69.8 °F - 62.6 °F 78% 30.04 in 7.0 mi East 8.1 mph - N/A   Clear
2:50 AM 71 °F - 66 °F 80% 30.01 in 3 mi ESE 4.5 mph - -   Scattered Clouds
3:48 AM 69.8 °F - 62.6 °F 78% 30.00 in 7.0 mi East 5.8 mph - N/A   Clear
4:53 AM 69.8 °F - 62.6 °F 78% 30.01 in 7.0 mi Calm Calm - N/A   Clear
5:50 AM 68 °F - 65 °F 87% 30.04 in 3 mi East 2.2 mph - -   Scattered Clouds
5:51 AM 68.0 °F - 62.6 °F 83% 30.06 in 5.0 mi Calm Calm - N/A   Scattered Clouds
6:47 AM 69.8 °F - 64.4 °F 83% 30.04 in 5.0 mi Calm Calm - N/A   Mostly Cloudy
7:47 AM 75.2 °F - 66.2 °F 73% 30.04 in 7.0 mi ENE 5.8 mph - N/A   Scattered Clouds
8:46 AM 78.8 °F - 64.4 °F 61% 30.06 in 7.0 mi ENE 6.9 mph - N/A   Partly Cloudy
8:50 AM 80 °F - 69 °F 61% 30.06 in 6 mi East 4.5 mph - -   Scattered Clouds
9:46 AM 84.2 °F 85.0 °F 62.6 °F 48% 30.04 in 7.0 mi ENE 4.6 mph - N/A   Scattered Clouds
10:44 AM 86.0 °F 86.1 °F 60.8 °F 43% 30.01 in 7.0 mi East 9.2 mph - N/A   Scattered Clouds
11:47 AM 87.8 °F 87.1 °F 59.0 °F 38% 29.99 in 7.0 mi ESE 10.4 mph - N/A   Scattered Clouds
11:50 AM 88 °F - 72 °F 50% 30.00 in 6 mi ESE 6.7 mph - -   Scattered Clouds
12:45 PM 89.6 °F 88.1 °F 57.2 °F 33% 29.95 in 7.0 mi East 9.2 mph - N/A   Scattered Clouds
1:43 PM 89.6 °F 89.5 °F 60.8 °F 38% 29.94 in 7.0 mi NE 6.9 mph - N/A   Scattered Clouds
2:46 PM 87.8 °F 89.4 °F 64.4 °F 46% 29.94 in 7.0 mi NE 9.2 mph - N/A   Scattered Clouds
2:50 PM 88 °F - 67 °F 41% 29.96 in 6 mi ESE 8.9 mph - -   Partly Cloudy
3:50 PM 84.2 °F 85.0 °F 62.6 °F 48% 29.93 in 7.0 mi NNE 11.5 mph - N/A   Partly Cloudy
4:47 PM 80.6 °F 82.3 °F 64.4 °F 58% 29.95 in 7.0 mi North 11.5 mph - N/A   Scattered Clouds
5:48 PM 78.8 °F - 64.4 °F 61% 29.98 in 7.0 mi NE 10.4 mph - N/A   Scattered Clouds
5:50 PM 81 °F - 69 °F 59% 29.96 in 6 mi NNE 11.2 mph - -   Clear
6:47 PM 77.0 °F - 66.2 °F 69% 29.98 in 7.0 mi NE 9.2 mph - N/A   Clear
7:45 PM 77.0 °F - 68.0 °F 74% 30.01 in 7.0 mi NE 8.1 mph - N/A   Clear
8:47 PM 75.2 °F - 68.0 °F 78% 30.02 in 7.0 mi ENE 11.5 mph - N/A   Clear
8:50 PM 77 °F - 71 °F 75% 30.02 in 3 mi NE 6.7 mph - -  
9:45 PM 75.2 °F - 68.0 °F 78% 30.02 in 7.0 mi East 9.2 mph - N/A   Clear
10:45 PM 75.2 °F - 68.0 °F 78% 30.03 in 7.0 mi East 4.6 mph - N/A   Partly Cloudy
11:46 PM 73.4 °F - 68.0 °F 83% 30.02 in 7.0 mi NE 3.5 mph - N/A   Clear